[[{"header":{"parameterUnit":"m.s-1","parameterCategory":2,"la1":30.2991,"la2":30.254,"lo1":-89.0895,"lo2":-89.0444,"dy":0.0017,"dx":0.0017,"nx":28,"ny":28,"refTime":"2025-03-25T21:00:00:Z","depth":"0","parameterNumber":2,"parameterNumberName":"U-component_of_CURRENTS"},"data":[0,0,0,0,0,0,0,0,0,0,0,0,0,0,0,0,0,0,0,0,0,0,0,0,0,0,0,0,0,0,0,0,0,0,0,0,0,0,0,0,0,0,0,0,0,0,0,0,0,0,0,0,0,0,0,0,0,0,-0.0354,-0.0356,0,-0.0565,-0.0568,-0.057,-0.0701,-0.0701,-0.0701,-0.0702,-0.0883,-0.0888,-0.0892,0,0,0,0,0,0,0,0,0,0,0,0,0,-0.0246,-0.0246,-0.0354,-0.0356,-0.0358,-0.0564,-0.0568,-0.0571,-0.0701,-0.0701,-0.0702,-0.0702,-0.0882,-0.0887,-0.0893,0,0,0,0,0,0,0,0,0,0,0,0,0,-0.0362,-0.0246,-0.0354,-0.0444,-0.0454,-0.0564,-0.0568,-0.0572,-0.0701,-0.0701,-0.0702,-0.0702,-0.088,-0.0887,-0.0893,-0.0929,0,0,-0.0915,-0.0918,0,0,0,0,0,0,0,0,-0.0355,-0.0367,-0.0429,-0.0438,-0.0449,-0.0603,-0.0596,-0.0688,-0.0701,-0.0613,-0.0702,-0.0702,-0.0783,-0.0798,-0.0844,-0.0937,-0.0945,-0.0915,-0.0919,-0.0922,-0.0924,0,0,0,0,0,0,0,-0.0347,-0.0359,-0.0443,-0.0431,-0.0444,-0.0536,-0.0552,-0.0616,-0.0696,-0.062,-0.0629,-0.0644,-0.0789,-0.0837,-0.0849,-0.0948,-0.0915,-0.0921,-0.0925,-0.0928,-0.1102,-0.1103,0,0,0,0,0,0,-0.0301,-0.035,-0.0436,-0.0448,-0.0397,-0.0537,-0.0555,-0.0557,-0.0697,-0.0717,-0.0644,-0.0649,-0.0826,-0.0841,-0.0856,-0.0924,-0.0922,-0.0929,-0.0933,-0.1102,-0.1102,-0.1103,0,0,0,0,0,0,-0.0297,-0.0306,-0.0427,-0.0402,-0.0423,-0.0536,-0.0539,-0.0561,-0.0606,-0.0714,-0.0735,-0.0664,-0.0826,-0.0846,-0.0931,-0.093,-0.0932,-0.0938,-0.1101,-0.1102,-0.1103,-0.1046,0,0,0,0,0,0,-0.0293,-0.0303,-0.0301,-0.0397,-0.0422,-0.0484,-0.0539,-0.0565,-0.0612,-0.0622,-0.0739,-0.0757,-0.0828,-0.092,-0.0937,-0.094,-0.0944,-0.1101,-0.1102,-0.1102,-0.1048,-0.1045,-0.1043,0,0,0,0,0,-0.0288,-0.0289,-0.0299,-0.031,-0.041,-0.0484,-0.0506,-0.0593,-0.0612,-0.0634,-0.0724,-0.0753,-0.0937,-0.0927,-0.0947,-0.0951,-0.11,-0.1101,-0.1102,-0.1049,-0.1046,-0.1043,0,0,0,0,0,0,-0.0262,-0.0304,-0.0318,-0.0335,-0.0394,-0.0504,-0.0536,-0.0579,-0.0669,-0.0676,-0.0773,-0.0799,-0.0871,-0.0917,-0.0903,-0.1003,-0.1017,-0.1022,-0.0969,-0.0967,-0.0965,-0.0929,-0.0949,0,0,0,0,0,-0.0243,-0.0244,-0.0306,-0.0323,-0.0341,-0.0429,-0.0471,-0.0519,-0.0604,-0.0645,-0.0725,-0.0809,-0.0892,-0.0933,-0.101,-0.1066,-0.107,-0.1078,-0.1075,-0.1073,-0.1057,-0.1101,-0.11,-0.1106,-0.1106,-0.1106,0,0,-0.0242,-0.0263,-0.0269,-0.0316,-0.0368,-0.0406,-0.0457,-0.0507,-0.0547,-0.0647,-0.0727,-0.0805,-0.0906,-0.0983,-0.1016,-0.1021,-0.1062,-0.1074,-0.1071,-0.1057,-0.1102,-0.1101,-0.11,-0.1107,-0.1107,-0.1107,0,0,-0.0244,-0.0248,-0.0252,-0.0284,-0.0336,-0.0388,-0.0388,-0.0477,-0.0523,-0.0599,-0.0687,-0.0762,-0.0879,-0.0961,-0.1015,-0.1039,-0.1051,-0.1056,-0.1017,-0.106,-0.1059,-0.1059,-0.1008,-0.1004,-0.1053,-0.1053,-0.1053,0,-0.0246,-0.025,-0.0271,-0.0285,-0.0313,-0.0367,-0.039,-0.0445,-0.0555,-0.059,-0.0608,-0.0791,-0.0868,-0.0975,-0.0989,-0.1032,-0.1028,-0.102,-0.1055,-0.1055,-0.1055,-0.1005,-0.1,-0.105,-0.1051,-0.1051,-0.1051,0,-0.0254,-0.0256,-0.0262,-0.0284,-0.0316,-0.0343,-0.0398,-0.0434,-0.0477,-0.054,-0.0632,-0.0746,-0.0848,-0.0886,-0.095,-0.1003,-0.0985,-0.1046,-0.1054,-0.1051,-0.0997,-0.0994,-0.1047,-0.1047,-0.1048,-0.1049,0,0,-0.0273,-0.0266,-0.027,-0.027,-0.0311,-0.0342,-0.0377,-0.044,-0.0467,-0.0549,-0.0599,-0.0736,-0.0776,-0.0838,-0.0922,-0.0962,-0.095,-0.0996,-0.1,-0.0929,-0.0972,-0.0912,-0.0902,-0.1025,-0.1026,-0.1026,-0.0912,0,-0.0282,-0.0281,-0.0285,-0.0304,-0.0311,-0.0343,-0.0376,-0.043,-0.0482,-0.0538,-0.0627,-0.0709,-0.0764,-0.081,-0.0858,-0.0956,-0.0948,-0.097,-0.1,-0.0998,-0.0935,-0.0901,-0.0834,-0.0725,-0.0909,-0.0908,-0.0908,0,-0.0302,-0.0292,-0.0294,-0.0295,-0.0302,-0.0321,-0.0364,-0.0398,-0.0471,-0.0509,-0.0578,-0.0647,-0.0727,-0.0768,-0.086,-0.0873,-0.0893,-0.0942,-0.0941,-0.0904,-0.0935,-0.0772,-0.0712,-0.0599,-0.0903,-0.0903,-0.0904,0,-0.0312,-0.0308,-0.0301,-0.0304,-0.0315,-0.0321,-0.0336,-0.0393,-0.042,-0.0484,-0.0504,-0.0605,-0.0656,-0.072,-0.0794,-0.0832,-0.0861,-0.0933,-0.0872,-0.0864,-0.0821,-0.0809,-0.0646,-0.0948,-0.0948,-0.0948,-0.0948,0,-0.0329,-0.0329,-0.0297,-0.0297,-0.0293,-0.0304,-0.0319,-0.0348,-0.0388,-0.0415,-0.0482,-0.0521,-0.0654,-0.0692,-0.075,-0.0775,-0.0814,-0.0831,-0.0842,-0.0792,-0.0781,-0.0696,-0.0647,-0.0944,-0.0945,-0.0946,-0.0946,0,-0.0355,-0.0333,-0.0322,-0.0304,-0.0297,-0.0295,-0.0293,-0.0305,-0.0335,-0.0365,-0.0377,-0.0461,-0.0504,-0.0576,-0.0673,-0.0709,-0.0698,-0.0735,-0.0614,-0.0613,-0.0476,-0.0428,-0.0375,-0.0398,-0.0649,-0.0647,-0.0646,0,-0.0372,-0.0362,-0.0322,-0.0305,-0.0294,-0.0281,-0.0274,-0.0288,-0.0297,-0.0331,-0.0344,-0.0379,-0.041,-0.0472,-0.0536,-0.0554,-0.0576,-0.0501,-0.0581,-0.0417,-0.0372,-0.0445,-0.0476,-0.0469,-0.0466,-0.0463,-0.0461,0,-0.04,-0.0376,-0.0357,-0.0311,-0.0288,-0.0264,-0.0248,-0.0246,-0.0258,-0.0267,-0.0284,-0.03,-0.0333,-0.0349,-0.0358,-0.039,-0.0432,-0.0451,-0.0345,-0.0246,-0.0254,-0.0298,-0.0529,-0.0439,-0.0442,-0.0443,-0.0444,-0.0445,-0.0421,-0.0403,-0.0359,-0.032,-0.0289,-0.0251,-0.0227,-0.0209,-0.0199,-0.0192,-0.0223,-0.0211,-0.0199,-0.0221,-0.0217,-0.0131,-0.0263,-0.0129,-0.0082,-0.0173,-0.0199,-0.0326,-0.0231,-0.0232,-0.0233,-0.0234,-0.0235,0,-0.0447,-0.0407,-0.037,-0.0315,-0.028,-0.0257,-0.0214,-0.0183,-0.0153,-0.0133,-0.0127,-0.0068,-0.0006,0.0021,0.0118,0.0218,0.0109,0.027,0.0203,0.0143,0.0007,0.0013,0.0243,0.0243,0.0242,0.0242,0.0242,0.0242,-0.0458,-0.0418,-0.0384,-0.0317,-0.028,-0.0225,-0.0193,-0.0138,-0.0104,-0.0036,0.0011,0.0029,0.0207,0.0461,0.0625,0.0606,0.0547,0.0577,0.0511,0.05,0.0465,0.0432,0.0449,0.0766,0.0767,0.0569,0.0569,0.0569]},{"header":{"parameterUnit":"m.s-1","parameterCategory":2,"la1":30.2991,"la2":30.254,"lo1":-89.0895,"lo2":-89.0444,"dy":0.0017,"dx":0.0017,"nx":28,"ny":28,"refTime":"2025-03-25T21:00:00:Z","depth":"0","parameterNumber":3,"parameterNumberName":"V-component_of_CURRENTS"},"data":[0,0,0,0,0,0,0,0,0,0,0,0,0,0,0,0,0,0,0,0,0,0,0,0,0,0,0,0,0,0,0,0,0,0,0,0,0,0,0,0,0,0,0,0,0,0,0,0,0,0,0,0,0,0,0,0,0,0,-0.1988,-0.1987,0,-0.1908,-0.1907,-0.1906,-0.1829,-0.1828,-0.1828,-0.1827,-0.1682,-0.1679,-0.1676,0,0,0,0,0,0,0,0,0,0,0,0,0,-0.204,-0.204,-0.1988,-0.1987,-0.1987,-0.1909,-0.1907,-0.1906,-0.1829,-0.1828,-0.1827,-0.1827,-0.1683,-0.168,-0.1676,0,0,0,0,0,0,0,0,0,0,0,0,0,-0.1992,-0.204,-0.1988,-0.1941,-0.1937,-0.1909,-0.1907,-0.1905,-0.1829,-0.1828,-0.1827,-0.1826,-0.1685,-0.168,-0.1675,-0.1666,0,0,-0.1661,-0.1658,0,0,0,0,0,0,0,0,-0.1995,-0.1989,-0.1949,-0.1945,-0.1939,-0.1881,-0.1873,-0.1823,-0.183,-0.1866,-0.1827,-0.1826,-0.1746,-0.1736,-0.1719,-0.1659,-0.1653,-0.166,-0.1657,-0.1655,-0.1654,0,0,0,0,0,0,0,-0.1998,-0.1992,-0.1953,-0.1948,-0.1943,-0.1914,-0.1906,-0.1863,-0.1809,-0.1863,-0.1858,-0.1855,-0.1742,-0.1724,-0.1715,-0.1651,-0.166,-0.1656,-0.1653,-0.1651,-0.1555,-0.1556,0,0,0,0,0,0,-0.2018,-0.1996,-0.1955,-0.1951,-0.1969,-0.1914,-0.1905,-0.1898,-0.181,-0.1798,-0.1856,-0.1852,-0.1733,-0.1721,-0.171,-0.1673,-0.1655,-0.1651,-0.1648,-0.1555,-0.1555,-0.1556,0,0,0,0,0,0,-0.2019,-0.2015,-0.1959,-0.1974,-0.1966,-0.1915,-0.1907,-0.1897,-0.1875,-0.1807,-0.1792,-0.1846,-0.1731,-0.1716,-0.1673,-0.1668,-0.1648,-0.1644,-0.1555,-0.1555,-0.1556,-0.1613,0,0,0,0,0,0,-0.2021,-0.2016,-0.2019,-0.1976,-0.1966,-0.1943,-0.1908,-0.1896,-0.1877,-0.187,-0.1793,-0.1778,-0.1729,-0.168,-0.1668,-0.1661,-0.164,-0.1554,-0.1555,-0.1555,-0.1611,-0.1616,-0.162,0,0,0,0,0,-0.2023,-0.2032,-0.2019,-0.2015,-0.1971,-0.1944,-0.1936,-0.1894,-0.1878,-0.187,-0.1821,-0.1781,-0.1676,-0.1677,-0.1662,-0.1653,-0.1554,-0.1555,-0.1555,-0.1609,-0.1615,-0.162,0,0,0,0,0,0,-0.2059,-0.2024,-0.2009,-0.2008,-0.198,-0.1932,-0.193,-0.1901,-0.1857,-0.1852,-0.1784,-0.1766,-0.1729,-0.1688,-0.1691,-0.163,-0.1609,-0.1607,-0.1654,-0.1659,-0.1664,-0.1673,-0.1636,0,0,0,0,0,-0.2071,-0.2069,-0.2028,-0.2032,-0.2021,-0.1978,-0.1963,-0.1934,-0.1892,-0.1872,-0.1819,-0.1766,-0.1722,-0.1689,-0.1648,-0.1611,-0.1579,-0.1598,-0.1602,-0.1606,-0.1604,-0.157,-0.1572,-0.1558,-0.1558,-0.1558,0,0,-0.2088,-0.2071,-0.207,-0.204,-0.2018,-0.1999,-0.1965,-0.1949,-0.1926,-0.1864,-0.1822,-0.1783,-0.172,-0.1681,-0.1659,-0.1642,-0.1592,-0.1607,-0.1611,-0.1607,-0.1571,-0.1573,-0.1574,-0.1559,-0.1559,-0.1559,0,0,-0.2121,-0.2107,-0.211,-0.2088,-0.206,-0.2028,-0.2026,-0.1978,-0.1949,-0.1909,-0.1863,-0.1829,-0.175,-0.171,-0.1678,-0.1684,-0.1626,-0.1664,-0.168,-0.1647,-0.1648,-0.1648,-0.1608,-0.1605,-0.1656,-0.1657,-0.1657,0,-0.2142,-0.2136,-0.2109,-0.2102,-0.2087,-0.2043,-0.2035,-0.2,-0.1942,-0.192,-0.1902,-0.1807,-0.1766,-0.1713,-0.1715,-0.1694,-0.1659,-0.1664,-0.1653,-0.1653,-0.1652,-0.1611,-0.1606,-0.1659,-0.1659,-0.1659,-0.1659,0,-0.2165,-0.2159,-0.2164,-0.2135,-0.2117,-0.2107,-0.2057,-0.2029,-0.1993,-0.1954,-0.1904,-0.185,-0.1788,-0.1775,-0.1742,-0.1712,-0.1684,-0.1672,-0.1642,-0.1657,-0.1612,-0.1606,-0.1664,-0.1663,-0.1662,-0.1661,0,0,-0.2205,-0.2183,-0.2182,-0.2173,-0.2131,-0.2117,-0.2085,-0.2038,-0.2013,-0.196,-0.1919,-0.1865,-0.1836,-0.1799,-0.1757,-0.173,-0.1704,-0.1697,-0.1694,-0.166,-0.1618,-0.1586,-0.1575,-0.1685,-0.1684,-0.1683,-0.1589,0,-0.2225,-0.2223,-0.2203,-0.2195,-0.2185,-0.2139,-0.2107,-0.2061,-0.2018,-0.1968,-0.1912,-0.1862,-0.1842,-0.1811,-0.1783,-0.1721,-0.169,-0.173,-0.1605,-0.1601,-0.1573,-0.1568,-0.1579,-0.1494,-0.1582,-0.1581,-0.158,0,-0.2241,-0.2237,-0.2236,-0.221,-0.2201,-0.2189,-0.2137,-0.2102,-0.2027,-0.1992,-0.1939,-0.1885,-0.1826,-0.1813,-0.1717,-0.1737,-0.1684,-0.1643,-0.1638,-0.1582,-0.1557,-0.1492,-0.1479,-0.1372,-0.157,-0.1571,-0.1572,0,-0.2266,-0.2255,-0.2258,-0.2249,-0.2211,-0.2202,-0.2175,-0.2112,-0.2075,-0.2006,-0.197,-0.1895,-0.1843,-0.1775,-0.1684,-0.1693,-0.1577,-0.1578,-0.1499,-0.1495,-0.1467,-0.1462,-0.1338,-0.1518,-0.1518,-0.1519,-0.1519,0,-0.2281,-0.2281,-0.2273,-0.2272,-0.2261,-0.2229,-0.2203,-0.2164,-0.2099,-0.2049,-0.1986,-0.1935,-0.1831,-0.1744,-0.1676,-0.1559,-0.1566,-0.1495,-0.1468,-0.1487,-0.1485,-0.136,-0.1317,-0.1515,-0.1516,-0.1517,-0.1517,0,-0.2295,-0.2292,-0.2291,-0.2276,-0.2273,-0.2261,-0.2218,-0.2185,-0.2135,-0.2067,-0.2039,-0.1947,-0.1844,-0.1734,-0.1613,-0.1542,-0.1385,-0.1401,-0.1425,-0.1402,-0.1239,-0.12,-0.1129,-0.1028,-0.1298,-0.1297,-0.1296,0,-0.2296,-0.2302,-0.2301,-0.2299,-0.2296,-0.2277,-0.2248,-0.22,-0.217,-0.2074,-0.2042,-0.1931,-0.1849,-0.1659,-0.1538,-0.1396,-0.1324,-0.1292,-0.1323,-0.1219,-0.1156,-0.1205,-0.1127,-0.1305,-0.1304,-0.1303,-0.1302,0,-0.2296,-0.2302,-0.2301,-0.2301,-0.2292,-0.2268,-0.2242,-0.2224,-0.215,-0.2103,-0.2035,-0.1968,-0.18,-0.1672,-0.1478,-0.1376,-0.123,-0.1271,-0.1158,-0.1142,-0.1193,-0.1086,-0.1369,-0.1295,-0.1296,-0.1296,-0.1297,-0.1297,-0.2287,-0.2287,-0.2292,-0.229,-0.2283,-0.226,-0.223,-0.2209,-0.2159,-0.207,-0.2039,-0.1932,-0.1792,-0.1549,-0.1396,-0.1133,-0.1175,-0.1065,-0.1022,-0.108,-0.0996,-0.1257,-0.1158,-0.1158,-0.1158,-0.1158,-0.1158,0,-0.2275,-0.2275,-0.2276,-0.2266,-0.2259,-0.2254,-0.2217,-0.2179,-0.2137,-0.2058,-0.2001,-0.1841,-0.1664,-0.1443,-0.1159,-0.0942,-0.0892,-0.0812,-0.0872,-0.0794,-0.1013,-0.1024,-0.0898,-0.0898,-0.0898,-0.0898,-0.0898,-0.0898,-0.226,-0.226,-0.2265,-0.2246,-0.2242,-0.2196,-0.2172,-0.2129,-0.2078,-0.195,-0.184,-0.1713,-0.1397,-0.1173,-0.0826,-0.0723,-0.057,-0.0615,-0.0474,-0.0619,-0.064,-0.066,-0.0658,-0.0457,-0.0457,-0.0302,-0.03,-0.0299]}],[{"header":{"parameterUnit":"m.s-1","parameterCategory":2,"la1":30.2991,"la2":30.254,"lo1":-89.0895,"lo2":-89.0444,"dy":0.0017,"dx":0.0017,"nx":28,"ny":28,"refTime":"2025-03-25T21:00:00:Z","depth":"2","parameterNumber":2,"parameterNumberName":"U-component_of_CURRENTS"},"data":[0,0,0,0,0,0,0,0,0,0,0,0,0,0,0,0,0,0,0,0,0,0,0,0,0,0,0,0,0,0,0,0,0,0,0,0,0,0,0,0,0,0,0,0,0,0,0,0,0,0,0,0,0,0,0,0,0,0,-0.0653,-0.0652,0,-0.0555,-0.0554,-0.0552,-0.0508,-0.0508,-0.0509,-0.0509,-0.0411,-0.0408,-0.0405,0,0,0,0,0,0,0,0,0,0,0,0,0,-0.069,-0.069,-0.0653,-0.0652,-0.0651,-0.0555,-0.0554,-0.0552,-0.0508,-0.0508,-0.0509,-0.0509,-0.0412,-0.0409,-0.0405,0,0,0,0,0,0,0,0,0,0,0,0,0,-0.0638,-0.069,-0.0653,-0.062,-0.0616,-0.0556,-0.0553,-0.0551,-0.0508,-0.0508,-0.0509,-0.051,-0.0413,-0.0409,-0.0405,-0.0364,0,0,-0.0391,-0.0389,0,0,0,0,0,0,0,0,-0.0641,-0.0637,-0.0626,-0.0622,-0.0618,-0.0547,-0.0531,-0.049,-0.0508,-0.0545,-0.0509,-0.051,-0.0459,-0.045,-0.0426,-0.0359,-0.0355,-0.039,-0.0388,-0.0386,-0.0384,0,0,0,0,0,0,0,-0.0645,-0.064,-0.061,-0.0625,-0.062,-0.0572,-0.0566,-0.0522,-0.0497,-0.0542,-0.0539,-0.0534,-0.0456,-0.043,-0.0423,-0.0354,-0.0391,-0.0387,-0.0384,-0.0382,-0.0261,-0.0261,0,0,0,0,0,0,-0.067,-0.0644,-0.0614,-0.0608,-0.0636,-0.0572,-0.0565,-0.0567,-0.0497,-0.0488,-0.0534,-0.0532,-0.0437,-0.0428,-0.0419,-0.0387,-0.0386,-0.0382,-0.0379,-0.0262,-0.0261,-0.0261,0,0,0,0,0,0,-0.0671,-0.0668,-0.0618,-0.0626,-0.0617,-0.0572,-0.0573,-0.0564,-0.0552,-0.0491,-0.0482,-0.0532,-0.0438,-0.0426,-0.0386,-0.0383,-0.038,-0.0375,-0.0262,-0.0262,-0.0261,-0.0311,0,0,0,0,0,0,-0.0672,-0.0669,-0.0671,-0.0628,-0.0617,-0.0591,-0.0573,-0.0562,-0.0548,-0.0546,-0.0487,-0.0477,-0.0437,-0.0393,-0.0382,-0.0377,-0.0372,-0.0263,-0.0262,-0.0261,-0.031,-0.0312,-0.0313,0,0,0,0,0,-0.0674,-0.0677,-0.0672,-0.0668,-0.0625,-0.0592,-0.0581,-0.0548,-0.0548,-0.054,-0.0501,-0.048,-0.0379,-0.0389,-0.0376,-0.0369,-0.0264,-0.0262,-0.0261,-0.0309,-0.0311,-0.0313,0,0,0,0,0,0,-0.0687,-0.0672,-0.0666,-0.0662,-0.0636,-0.0586,-0.0573,-0.0559,-0.0519,-0.052,-0.0471,-0.0458,-0.042,-0.0387,-0.04,-0.0331,-0.0319,-0.0315,-0.0359,-0.0361,-0.0363,-0.0365,-0.0368,0,0,0,0,0,-0.0695,-0.0696,-0.067,-0.0665,-0.0658,-0.062,-0.0603,-0.0585,-0.0548,-0.0532,-0.0492,-0.0447,-0.0401,-0.0379,-0.0331,-0.0295,-0.0289,-0.0282,-0.0284,-0.0286,-0.0278,-0.0272,-0.0273,-0.0257,-0.0257,-0.0257,0,0,-0.0695,-0.0688,-0.0686,-0.0668,-0.0644,-0.0624,-0.0611,-0.0592,-0.057,-0.0527,-0.0487,-0.0452,-0.0392,-0.0348,-0.0329,-0.0324,-0.0292,-0.0284,-0.0287,-0.0277,-0.0271,-0.0272,-0.0274,-0.0256,-0.0256,-0.0257,0,0,-0.0693,-0.0697,-0.0694,-0.0678,-0.0656,-0.0632,-0.0636,-0.0598,-0.058,-0.0538,-0.0504,-0.0468,-0.0398,-0.0355,-0.0323,-0.0307,-0.0302,-0.0299,-0.0309,-0.0304,-0.0306,-0.0307,-0.0329,-0.0332,-0.0301,-0.0301,-0.0301,0,-0.0693,-0.0687,-0.0685,-0.0675,-0.0659,-0.0644,-0.0628,-0.0602,-0.0554,-0.0541,-0.0532,-0.0441,-0.0394,-0.0343,-0.0332,-0.0311,-0.0322,-0.031,-0.0309,-0.031,-0.0311,-0.0333,-0.0335,-0.0303,-0.0303,-0.0302,-0.0302,0,-0.0684,-0.0677,-0.0674,-0.0659,-0.0645,-0.0629,-0.0605,-0.0591,-0.0574,-0.0547,-0.0507,-0.0448,-0.0395,-0.0378,-0.0342,-0.0321,-0.0335,-0.0317,-0.0311,-0.0316,-0.0338,-0.034,-0.0306,-0.0305,-0.0305,-0.0304,0,0,-0.0683,-0.0671,-0.0668,-0.0657,-0.0637,-0.0622,-0.0603,-0.0575,-0.0568,-0.0529,-0.0512,-0.0432,-0.0421,-0.0384,-0.0351,-0.034,-0.0355,-0.0333,-0.0332,-0.0369,-0.0375,-0.0336,-0.0334,-0.035,-0.035,-0.035,-0.0401,0,-0.067,-0.0652,-0.065,-0.0624,-0.0609,-0.0601,-0.0582,-0.0562,-0.0545,-0.0528,-0.049,-0.045,-0.0419,-0.0398,-0.0385,-0.0353,-0.0357,-0.0344,-0.0352,-0.0352,-0.0327,-0.0333,-0.0243,-0.0275,-0.0402,-0.0403,-0.0403,0,-0.0655,-0.0644,-0.0622,-0.0606,-0.0602,-0.0588,-0.0574,-0.0554,-0.0538,-0.0527,-0.0505,-0.0481,-0.0444,-0.0423,-0.0396,-0.0396,-0.0387,-0.0374,-0.0376,-0.0316,-0.0314,-0.0282,-0.0273,-0.0406,-0.0405,-0.0405,-0.0405,0,-0.0643,-0.0623,-0.0607,-0.0598,-0.058,-0.0575,-0.0565,-0.0553,-0.0538,-0.0526,-0.0519,-0.0495,-0.0467,-0.0457,-0.0424,-0.0414,-0.0418,-0.04,-0.0366,-0.0365,-0.0273,-0.0263,-0.0392,-0.0392,-0.0392,-0.0392,-0.0392,0,-0.0624,-0.0609,-0.0601,-0.0587,-0.0572,-0.0567,-0.0554,-0.0546,-0.0538,-0.0518,-0.0513,-0.0489,-0.0473,-0.0469,-0.0452,-0.0418,-0.0442,-0.0367,-0.0366,-0.029,-0.0281,-0.037,-0.0367,-0.0394,-0.0394,-0.0393,-0.0393,0,-0.0608,-0.0602,-0.058,-0.0566,-0.0563,-0.055,-0.0538,-0.0529,-0.0525,-0.0504,-0.0496,-0.0485,-0.0467,-0.0474,-0.0459,-0.0434,-0.0418,-0.0405,-0.0331,-0.0318,-0.0369,-0.0368,-0.0367,-0.0366,-0.0365,-0.0364,-0.0364,0,-0.0595,-0.0582,-0.0565,-0.0553,-0.0545,-0.053,-0.052,-0.0515,-0.0505,-0.0485,-0.0472,-0.046,-0.0417,-0.0408,-0.037,-0.0358,-0.0404,-0.029,-0.0228,-0.0362,-0.0362,-0.0363,-0.0362,-0.0148,-0.0145,-0.0143,-0.0142,0,-0.0564,-0.0563,-0.0547,-0.0525,-0.0511,-0.0495,-0.0482,-0.0469,-0.0459,-0.0437,-0.0392,-0.0354,-0.032,-0.0239,-0.0241,-0.0225,-0.0282,-0.0247,-0.0404,-0.0158,-0.0156,-0.0156,-0.0163,-0.0124,-0.0126,-0.0127,-0.0128,-0.0129,-0.0539,-0.0526,-0.0508,-0.0487,-0.0471,-0.0446,-0.0421,-0.0408,-0.0371,-0.0317,-0.0307,-0.0225,-0.0191,-0.011,-0.0096,-0.0101,-0.0132,-0.0119,-0.0124,-0.0132,-0.0088,-0.0082,-0.0031,-0.0032,-0.0033,-0.0034,-0.0035,0,-0.0492,-0.0487,-0.0469,-0.0436,-0.0412,-0.0411,-0.0383,-0.0356,-0.0298,-0.0255,-0.0189,-0.0081,0.0017,0.0011,0.0074,0.0089,0.0087,0.0063,0.0073,0.0058,0.0043,0.0096,0.0201,0.0202,0.0202,0.0202,0,0,-0.0464,-0.044,-0.0436,-0.0382,-0.0361,-0.0314,-0.0287,-0.0249,-0.0224,-0.0145,-0.0076,-0.0001,0.0026,0.0107,0.0137,0.0171,0.0092,0.0168,-0.0013,-0.0019,-0.0034,-0.0041,0.0025,0,0,0,0,0]},{"header":{"parameterUnit":"m.s-1","parameterCategory":2,"la1":30.2991,"la2":30.254,"lo1":-89.0895,"lo2":-89.0444,"dy":0.0017,"dx":0.0017,"nx":28,"ny":28,"refTime":"2025-03-25T21:00:00:Z","depth":"2","parameterNumber":3,"parameterNumberName":"V-component_of_CURRENTS"},"data":[0,0,0,0,0,0,0,0,0,0,0,0,0,0,0,0,0,0,0,0,0,0,0,0,0,0,0,0,0,0,0,0,0,0,0,0,0,0,0,0,0,0,0,0,0,0,0,0,0,0,0,0,0,0,0,0,0,0,0.0523,0.0522,0,0.0481,0.048,0.048,0.0411,0.041,0.0409,0.0408,0.0302,0.03,0.0298,0,0,0,0,0,0,0,0,0,0,0,0,0,0.0513,0.0513,0.0523,0.0522,0.0522,0.0481,0.048,0.0479,0.0411,0.041,0.0408,0.0407,0.0302,0.03,0.0298,0,0,0,0,0,0,0,0,0,0,0,0,0,0.0497,0.0514,0.0523,0.0484,0.048,0.0481,0.048,0.0479,0.0412,0.041,0.0408,0.0407,0.0303,0.0301,0.0298,0.0316,0,0,0.029,0.0289,0,0,0,0,0,0,0,0,0.0498,0.0498,0.049,0.0487,0.0482,0.0451,0.0438,0.0422,0.0412,0.0436,0.0408,0.0406,0.0348,0.0341,0.0336,0.0311,0.0306,0.029,0.0288,0.0287,0.0286,0,0,0,0,0,0,0,0.05,0.0499,0.0505,0.049,0.0485,0.0458,0.0454,0.0435,0.04,0.0434,0.0429,0.0427,0.0345,0.0339,0.0333,0.0305,0.029,0.0287,0.0286,0.0285,0.0212,0.0211,0,0,0,0,0,0,0.0511,0.0501,0.0506,0.0504,0.0488,0.046,0.0455,0.0461,0.0401,0.0391,0.0429,0.0424,0.0344,0.0336,0.0329,0.027,0.0287,0.0284,0.0283,0.0212,0.0211,0.0211,0,0,0,0,0,0,0.0512,0.0513,0.0508,0.0501,0.0499,0.0462,0.0469,0.0462,0.0427,0.0398,0.0386,0.0399,0.0343,0.0333,0.0286,0.0268,0.0283,0.0281,0.0212,0.0212,0.0211,0.02,0,0,0,0,0,0,0.0512,0.0513,0.0507,0.0503,0.05,0.0493,0.0471,0.0462,0.0431,0.0424,0.037,0.036,0.0341,0.0291,0.0284,0.0264,0.0279,0.0213,0.0212,0.0211,0.0201,0.0199,0.0198,0,0,0,0,0,0.0512,0.0509,0.0507,0.0507,0.0498,0.0493,0.0488,0.0456,0.0431,0.0417,0.0376,0.036,0.0282,0.0288,0.028,0.026,0.0213,0.0212,0.0212,0.0202,0.02,0.0198,0,0,0,0,0,0,0.0495,0.0503,0.0499,0.0498,0.0491,0.0481,0.0459,0.0446,0.0405,0.0383,0.0354,0.0341,0.0295,0.0283,0.0291,0.0239,0.0246,0.0243,0.0241,0.0239,0.0237,0.0241,0.0277,0,0,0,0,0,0.0495,0.0493,0.0499,0.0493,0.0488,0.0472,0.0459,0.0442,0.0415,0.0393,0.0359,0.0321,0.0294,0.0269,0.0244,0.0215,0.0224,0.0198,0.0196,0.0195,0.0193,0.0195,0.0194,0.0208,0.0208,0.0209,0,0,0.0485,0.0489,0.0485,0.0489,0.0475,0.0468,0.0458,0.0434,0.0419,0.039,0.0339,0.0312,0.0285,0.0249,0.0228,0.023,0.0198,0.0194,0.0193,0.0192,0.0194,0.0193,0.0192,0.0208,0.0208,0.0208,0,0,0.0466,0.0468,0.0459,0.0457,0.0444,0.0443,0.0434,0.0415,0.0392,0.0357,0.0331,0.0295,0.0247,0.0229,0.0214,0.0192,0.0191,0.0178,0.0167,0.0169,0.0168,0.0167,0.019,0.0191,0.0175,0.0175,0.0175,0,0.0449,0.0447,0.0453,0.0445,0.0437,0.0431,0.0418,0.0406,0.0371,0.0354,0.0334,0.0269,0.0242,0.0211,0.0196,0.0188,0.0194,0.0175,0.0167,0.0167,0.0166,0.0189,0.0191,0.0174,0.0175,0.0175,0.0175,0,0.0432,0.0421,0.0412,0.0407,0.0404,0.0387,0.0387,0.0368,0.0341,0.0329,0.0283,0.0252,0.0211,0.0201,0.0185,0.0163,0.0171,0.0167,0.0173,0.0164,0.0189,0.0191,0.0174,0.0174,0.0174,0.0174,0,0,0.041,0.0402,0.0393,0.0383,0.0379,0.0375,0.0359,0.0348,0.0332,0.0294,0.027,0.022,0.0198,0.0181,0.0161,0.0159,0.016,0.0153,0.0153,0.0178,0.0175,0.0219,0.0226,0.0148,0.0148,0.0148,0.0199,0,0.0384,0.0362,0.0369,0.0343,0.0331,0.0335,0.0327,0.0317,0.0302,0.0281,0.0254,0.0217,0.0194,0.0165,0.0159,0.0155,0.0161,0.0147,0.0178,0.0179,0.0221,0.0228,0.0204,0.0251,0.0201,0.0201,0.0202,0,0.0361,0.0349,0.032,0.0312,0.0307,0.0292,0.0282,0.0276,0.0266,0.0252,0.0221,0.0202,0.0175,0.0164,0.016,0.0147,0.0156,0.0165,0.0167,0.0213,0.0226,0.0249,0.0256,0.0205,0.0205,0.0204,0.0204,0,0.0337,0.0314,0.0287,0.0282,0.0277,0.0256,0.025,0.0248,0.0244,0.0223,0.0213,0.0189,0.0162,0.0168,0.0167,0.0158,0.0187,0.0182,0.0241,0.0245,0.0235,0.0238,0.0195,0.0195,0.0195,0.0194,0.0194,0,0.0315,0.029,0.0264,0.0248,0.0218,0.0222,0.0198,0.0196,0.0195,0.019,0.0179,0.0172,0.0157,0.0168,0.0179,0.0217,0.0194,0.0246,0.0259,0.0233,0.0235,0.0197,0.0196,0.0196,0.0196,0.0196,0.0195,0,0.0295,0.0277,0.0246,0.0218,0.0203,0.0177,0.0162,0.0157,0.0156,0.015,0.0138,0.0148,0.0153,0.0169,0.0189,0.0231,0.0268,0.0289,0.0271,0.0282,0.0327,0.0325,0.0369,0.0371,0.0373,0.0374,0.0375,0,0.0285,0.0262,0.0218,0.0195,0.0171,0.0137,0.0122,0.0123,0.0128,0.0138,0.014,0.0141,0.0158,0.0225,0.0273,0.0329,0.0297,0.0364,0.0348,0.0336,0.0344,0.034,0.0336,0.0333,0.0334,0.0334,0.0335,0,0.0268,0.0243,0.0221,0.0169,0.0133,0.0118,0.0094,0.0096,0.0106,0.0118,0.0138,0.0153,0.0205,0.0264,0.0344,0.0367,0.0355,0.0382,0.0361,0.0299,0.0307,0.0313,0.0309,0.034,0.0339,0.0339,0.0339,0.0338,0.025,0.0231,0.0192,0.0144,0.0112,0.0095,0.0083,0.0094,0.0108,0.0153,0.0162,0.0229,0.0275,0.0409,0.0392,0.0383,0.042,0.0427,0.0422,0.0418,0.0411,0.0422,0.0476,0.0476,0.0477,0.0477,0.0477,0,0.0232,0.0203,0.017,0.0121,0.0095,0.0073,0.0069,0.0088,0.0112,0.0166,0.0212,0.0332,0.0388,0.0393,0.0405,0.0434,0.0381,0.0398,0.0327,0.0325,0.0323,0.0306,0.0346,0.0345,0.0345,0.0344,0,0,0.0222,0.0186,0.0171,0.0112,0.0074,0.0048,0.0043,0.0087,0.0127,0.0239,0.032,0.0422,0.0438,0.0432,0.0404,0.0356,0.0312,0.0328,0.0441,0.0355,0.035,0.0364,0.0342,0,0,0,0,0]}],[{"header":{"parameterUnit":"m.s-1","parameterCategory":2,"la1":30.2991,"la2":30.254,"lo1":-89.0895,"lo2":-89.0444,"dy":0.0017,"dx":0.0017,"nx":28,"ny":28,"refTime":"2025-03-25T21:00:00:Z","depth":"4","parameterNumber":2,"parameterNumberName":"U-component_of_CURRENTS"},"data":[0,0,0,0,0,0,0,0,0,0,0,0,0,0,0,0,0,0,0,0,0,0,0,0,0,0,0,0,0,0,0,0,0,0,0,0,0,0,0,0,0,0,0,0,0,0,0,0,0,0,0,0,0,0,0,0,0,0,-0.0233,-0.0233,0,-0.019,-0.019,-0.0189,-0.0162,-0.0162,-0.0162,-0.0162,-0.014,-0.014,-0.0139,0,0,0,0,0,0,0,0,0,0,0,0,0,-0.0271,-0.0271,-0.0233,-0.0233,-0.0232,-0.019,-0.019,-0.0189,-0.0162,-0.0162,-0.0162,-0.0162,-0.0141,-0.014,-0.0139,0,0,0,0,0,0,0,0,0,0,0,0,0,-0.0243,-0.027,-0.0233,-0.0214,-0.0212,-0.019,-0.019,-0.0189,-0.0162,-0.0162,-0.0162,-0.0162,-0.0141,-0.014,-0.0139,-0.0136,0,0,-0.0137,-0.0136,0,0,0,0,0,0,0,0,-0.0245,-0.0242,-0.0218,-0.0216,-0.0213,-0.0182,-0.0195,-0.0173,-0.0162,-0.018,-0.0162,-0.0162,-0.0157,-0.0155,-0.0145,-0.0135,-0.0134,-0.0137,-0.0136,-0.0136,-0.0136,0,0,0,0,0,0,0,-0.0247,-0.0243,-0.0215,-0.0217,-0.0215,-0.0201,-0.0197,-0.019,-0.0169,-0.0179,-0.0177,-0.0174,-0.0156,-0.0146,-0.0145,-0.0134,-0.0137,-0.0136,-0.0136,-0.0135,-0.015,-0.0151,0,0,0,0,0,0,-0.0255,-0.0245,-0.0216,-0.0214,-0.023,-0.0201,-0.0196,-0.0192,-0.0169,-0.0165,-0.0174,-0.0173,-0.0148,-0.0146,-0.0144,-0.0178,-0.0136,-0.0135,-0.0135,-0.0149,-0.015,-0.0151,0,0,0,0,0,0,-0.0256,-0.0253,-0.0218,-0.0229,-0.0224,-0.0201,-0.0195,-0.0191,-0.0181,-0.0165,-0.0162,-0.0169,-0.0147,-0.0145,-0.0139,-0.0176,-0.0135,-0.0134,-0.0148,-0.015,-0.0151,-0.0221,0,0,0,0,0,0,-0.0257,-0.0254,-0.0248,-0.023,-0.0224,-0.0207,-0.0195,-0.019,-0.018,-0.0178,-0.016,-0.0158,-0.0147,-0.014,-0.0138,-0.0174,-0.0134,-0.0147,-0.0149,-0.015,-0.0218,-0.0225,-0.0231,0,0,0,0,0,-0.0259,-0.025,-0.0248,-0.0245,-0.0219,-0.0207,-0.0203,-0.0185,-0.018,-0.0176,-0.0165,-0.0158,-0.0149,-0.0139,-0.0137,-0.0174,-0.0146,-0.0148,-0.015,-0.0215,-0.0224,-0.0231,0,0,0,0,0,0,-0.026,-0.0246,-0.0244,-0.023,-0.0223,-0.0203,-0.0191,-0.0187,-0.0174,-0.017,-0.0159,-0.0156,-0.017,-0.0154,-0.0144,-0.0182,-0.0151,-0.0153,-0.0202,-0.0209,-0.0216,-0.0224,-0.0133,0,0,0,0,0,-0.0261,-0.0248,-0.0241,-0.0229,-0.0225,-0.0211,-0.0203,-0.0196,-0.0183,-0.0177,-0.0177,-0.0173,-0.0176,-0.0177,-0.0174,-0.0186,-0.0166,-0.021,-0.0217,-0.0222,-0.0227,-0.0219,-0.0225,-0.0158,-0.0158,-0.0157,0,0,-0.0257,-0.0247,-0.024,-0.0228,-0.0216,-0.0221,-0.0205,-0.0193,-0.0205,-0.0178,-0.0195,-0.0194,-0.0183,-0.0203,-0.0209,-0.0194,-0.0232,-0.0225,-0.023,-0.0231,-0.0221,-0.0228,-0.0234,-0.0159,-0.0159,-0.0158,0,0,-0.0241,-0.0236,-0.0222,-0.0224,-0.0214,-0.0217,-0.0218,-0.0214,-0.0218,-0.0233,-0.0224,-0.0237,-0.0244,-0.0248,-0.0248,-0.0285,-0.0266,-0.0295,-0.0336,-0.0329,-0.0334,-0.0339,-0.0326,-0.0329,-0.0299,-0.0299,-0.0299,0,-0.0238,-0.0225,-0.0217,-0.0214,-0.0222,-0.0221,-0.0227,-0.0234,-0.0236,-0.0251,-0.0248,-0.0278,-0.0268,-0.0294,-0.0314,-0.0302,-0.0291,-0.031,-0.0338,-0.0342,-0.0345,-0.0331,-0.0334,-0.0303,-0.0302,-0.0302,-0.0302,0,-0.0218,-0.0217,-0.021,-0.0216,-0.0226,-0.0228,-0.0249,-0.0269,-0.0289,-0.0305,-0.0342,-0.0336,-0.0354,-0.0365,-0.0352,-0.0385,-0.0368,-0.0347,-0.032,-0.0357,-0.0339,-0.034,-0.0308,-0.0307,-0.0306,-0.0305,0,0,-0.019,-0.0195,-0.0194,-0.0204,-0.0232,-0.0235,-0.0276,-0.0311,-0.0334,-0.0369,-0.0401,-0.0431,-0.0438,-0.0438,-0.0432,-0.0434,-0.0452,-0.0411,-0.0408,-0.0401,-0.0437,-0.0393,-0.0389,-0.0441,-0.0441,-0.0442,-0.0417,0,-0.0179,-0.0171,-0.019,-0.0211,-0.0216,-0.0258,-0.03,-0.0338,-0.0368,-0.0402,-0.0428,-0.0454,-0.0462,-0.0472,-0.0482,-0.0453,-0.0458,-0.0461,-0.04,-0.0398,-0.0356,-0.039,-0.0443,-0.0417,-0.0417,-0.0417,-0.0418,0,-0.0156,-0.0158,-0.0171,-0.0213,-0.0222,-0.026,-0.0325,-0.0355,-0.0415,-0.0436,-0.0481,-0.0492,-0.0522,-0.0508,-0.0507,-0.0511,-0.0487,-0.0466,-0.0463,-0.0397,-0.0355,-0.037,-0.0419,-0.0419,-0.0419,-0.0419,-0.0418,0,-0.0125,-0.0146,-0.016,-0.0175,-0.0229,-0.0273,-0.0316,-0.0381,-0.0401,-0.0459,-0.0472,-0.0517,-0.052,-0.0522,-0.0503,-0.0505,-0.048,-0.0465,-0.0406,-0.0402,-0.0417,-0.0412,-0.046,-0.046,-0.046,-0.046,-0.046,0,-0.0106,-0.0115,-0.0156,-0.0166,-0.0209,-0.0262,-0.0309,-0.036,-0.0413,-0.0427,-0.0488,-0.0491,-0.0523,-0.0518,-0.0507,-0.0463,-0.0485,-0.042,-0.0396,-0.0448,-0.0447,-0.0418,-0.0413,-0.0459,-0.046,-0.046,-0.046,0,-0.0076,-0.0092,-0.0109,-0.017,-0.0195,-0.0233,-0.0301,-0.0316,-0.0385,-0.04,-0.0421,-0.0467,-0.0462,-0.048,-0.0459,-0.0445,-0.0417,-0.0393,-0.0451,-0.0429,-0.0344,-0.0343,-0.0327,-0.0326,-0.0324,-0.0323,-0.0322,0,-0.0062,-0.0065,-0.0103,-0.0111,-0.015,-0.0201,-0.0225,-0.03,-0.0313,-0.037,-0.0368,-0.039,-0.041,-0.0353,-0.0381,-0.0369,-0.0359,-0.0353,-0.0358,-0.0354,-0.0332,-0.0334,-0.0335,-0.032,-0.0319,-0.0319,-0.0319,0,-0.0045,-0.0056,-0.0066,-0.0071,-0.0099,-0.011,-0.0164,-0.0176,-0.0244,-0.0292,-0.0297,-0.0309,-0.0293,-0.0303,-0.0301,-0.0292,-0.0368,-0.0338,-0.034,-0.0346,-0.0344,-0.0325,-0.0328,-0.0314,-0.0314,-0.0315,-0.0315,0,-0.0035,-0.0029,-0.0026,-0.0037,-0.0039,-0.0035,-0.0069,-0.0093,-0.0123,-0.0212,-0.0198,-0.0229,-0.0264,-0.026,-0.0256,-0.0253,-0.0245,-0.0239,-0.0247,-0.0253,-0.0245,-0.0233,-0.0153,0,0,0,0,0,-0.0021,0.0004,0.0012,0.0017,0.003,0.0022,-0.0023,-0.006,-0.0134,-0.0113,-0.0165,-0.0155,-0.0163,-0.0185,-0.0165,-0.0226,-0.0248,-0.0203,-0.0246,-0.0286,-0.0292,-0.0292,0,0,0,0,0,0,-0.0007,0.0014,0.0028,0.0074,0.0089,0.0102,0.0075,0.0024,0.0012,-0.0064,-0.0067,-0.012,-0.013,-0.015,-0.0148,-0.0156,-0.0175,-0.023,-0.0229,-0.0283,-0.0288,-0.0293,-0.0295,0,0,0,0,0]},{"header":{"parameterUnit":"m.s-1","parameterCategory":2,"la1":30.2991,"la2":30.254,"lo1":-89.0895,"lo2":-89.0444,"dy":0.0017,"dx":0.0017,"nx":28,"ny":28,"refTime":"2025-03-25T21:00:00:Z","depth":"4","parameterNumber":3,"parameterNumberName":"V-component_of_CURRENTS"},"data":[0,0,0,0,0,0,0,0,0,0,0,0,0,0,0,0,0,0,0,0,0,0,0,0,0,0,0,0,0,0,0,0,0,0,0,0,0,0,0,0,0,0,0,0,0,0,0,0,0,0,0,0,0,0,0,0,0,0,0.0162,0.0161,0,0.0117,0.0117,0.0116,0.0122,0.0123,0.0123,0.0124,0.0099,0.0097,0.0096,0,0,0,0,0,0,0,0,0,0,0,0,0,0.0231,0.023,0.0162,0.0161,0.016,0.0117,0.0116,0.0116,0.0122,0.0123,0.0123,0.0124,0.0099,0.0098,0.0096,0,0,0,0,0,0,0,0,0,0,0,0,0,0.0196,0.023,0.0162,0.0158,0.0157,0.0117,0.0116,0.0116,0.0122,0.0123,0.0124,0.0125,0.01,0.0098,0.0096,0.0064,0,0,0.009,0.0089,0,0,0,0,0,0,0,0,0.0198,0.0193,0.0159,0.0158,0.0157,0.0125,0.0132,0.0099,0.0121,0.0136,0.0124,0.0125,0.0108,0.0106,0.0096,0.0062,0.0061,0.009,0.0088,0.0088,0.0087,0,0,0,0,0,0,0,0.02,0.0195,0.0145,0.0158,0.0157,0.0151,0.0147,0.0125,0.0118,0.0134,0.0135,0.0128,0.0108,0.0097,0.0095,0.0061,0.009,0.0088,0.0087,0.0086,0.0061,0.0061,0,0,0,0,0,0,0.0204,0.0197,0.0146,0.0143,0.0179,0.0149,0.0145,0.0135,0.0117,0.0115,0.0127,0.0129,0.01,0.0097,0.0094,0.0093,0.0088,0.0086,0.0085,0.006,0.0061,0.0061,0,0,0,0,0,0,0.0206,0.02,0.0148,0.0169,0.0162,0.0147,0.0136,0.0134,0.0122,0.0112,0.0111,0.0118,0.0101,0.0097,0.008,0.009,0.0085,0.0083,0.006,0.006,0.0061,0.0065,0,0,0,0,0,0,0.0208,0.0201,0.0196,0.0169,0.0161,0.0115,0.0134,0.0132,0.0117,0.0118,0.0103,0.0102,0.0101,0.0083,0.0078,0.0088,0.0082,0.0059,0.006,0.0061,0.0064,0.0066,0.0067,0,0,0,0,0,0.021,0.0191,0.0196,0.019,0.0155,0.0114,0.0109,0.0102,0.0115,0.0099,0.0102,0.0103,0.0087,0.0081,0.0075,0.0085,0.0059,0.006,0.0061,0.0064,0.0066,0.0067,0,0,0,0,0,0,0.0219,0.0189,0.0194,0.0168,0.0143,0.0115,0.0097,0.0097,0.0085,0.0089,0.0092,0.009,0.0088,0.008,0.0074,0.0083,0.0079,0.0079,0.0083,0.0085,0.0086,0.0085,0.008,0,0,0,0,0,0.0219,0.0198,0.0171,0.0151,0.0135,0.0118,0.0103,0.0096,0.0081,0.0076,0.0075,0.0079,0.0087,0.0079,0.008,0.0063,0.0079,0.0073,0.0074,0.0076,0.0072,0.0118,0.0123,0.0065,0.0065,0.0065,0,0,0.0219,0.0198,0.0189,0.0151,0.0131,0.0099,0.011,0.0077,0.0063,0.0074,0.006,0.0078,0.0085,0.0085,0.0084,0.0077,0.0099,0.0077,0.0078,0.0074,0.012,0.0125,0.013,0.0066,0.0066,0.0066,0,0,0.0189,0.0185,0.0151,0.0126,0.009,0.008,0.007,0.0044,0.0045,0.0027,0.0054,0.0075,0.0061,0.0083,0.009,0.0093,0.011,0.0101,0.0097,0.0141,0.0147,0.0151,0.0173,0.018,0.0096,0.0096,0.0096,0,0.0191,0.0148,0.0135,0.0092,0.0073,0.0071,0.0033,0.0026,0.0006,0.0015,0.0021,0.0057,0.0063,0.0088,0.0101,0.0097,0.012,0.0088,0.0144,0.0149,0.0154,0.0175,0.0182,0.0096,0.0096,0.0096,0.0096,0,0.0132,0.0101,0.0075,0.003,0.0009,-0.0027,-0.0037,-0.0041,-0.0029,-0.0019,0.001,0.0033,0.0058,0.0075,0.0086,0.0131,0.0136,0.0146,0.0139,0.016,0.0181,0.0189,0.0097,0.0097,0.0097,0.0096,0,0,0.0127,0.005,0.0043,0.0015,-0.0025,-0.005,-0.0065,-0.0073,-0.0065,-0.005,-0.0033,0.0011,0.0048,0.006,0.0092,0.0133,0.019,0.0154,0.0156,0.0174,0.028,0.025,0.0256,0.0218,0.0219,0.0221,0.0279,0,0.0086,0.0006,-0.002,-0.0078,-0.0117,-0.0117,-0.0122,-0.0119,-0.0104,-0.0087,-0.0032,-0.0003,0.0034,0.0059,0.0107,0.0171,0.0212,0.0172,0.0258,0.026,0.0231,0.0264,0.0225,0.0285,0.0287,0.0288,0.0289,0,0.0036,-0.001,-0.0074,-0.0121,-0.0135,-0.0155,-0.0152,-0.0164,-0.013,-0.0112,-0.0068,-0.0029,0.0037,0.0064,0.018,0.0157,0.0219,0.0268,0.0272,0.0246,0.0245,0.0262,0.0303,0.0302,0.0301,0.03,0.0299,0,0.004,-0.0045,-0.0088,-0.011,-0.0158,-0.0165,-0.0175,-0.0157,-0.015,-0.0122,-0.01,-0.0032,0.0015,0.0101,0.0202,0.0199,0.0327,0.0329,0.0358,0.0356,0.0362,0.0356,0.0416,0.0415,0.0415,0.0415,0.0415,0,0.0006,-0.0032,-0.0086,-0.0112,-0.0138,-0.0166,-0.0175,-0.0172,-0.0154,-0.0129,-0.0101,-0.0058,0.0035,0.0115,0.0197,0.0299,0.0325,0.0362,0.0375,0.0361,0.0354,0.0367,0.0361,0.0417,0.0417,0.0416,0.0416,0,0.001,-0.0031,-0.0082,-0.013,-0.0141,-0.0153,-0.0178,-0.0179,-0.016,-0.013,-0.0115,-0.0058,0.0041,0.0126,0.0259,0.0295,0.0389,0.0421,0.0387,0.0396,0.0385,0.0378,0.0445,0.0445,0.0444,0.0444,0.0444,0,-0.0002,-0.0027,-0.0079,-0.0094,-0.0117,-0.0144,-0.0155,-0.017,-0.0162,-0.0114,-0.0087,-0.0009,0.0041,0.0202,0.0272,0.0392,0.0414,0.0436,0.0421,0.0385,0.0391,0.0385,0.0379,0.0443,0.0443,0.0443,0.0443,0,-0.0013,-0.0018,-0.0048,-0.0067,-0.0091,-0.0134,-0.0147,-0.0141,-0.0135,-0.0123,-0.0033,0.0029,0.0124,0.0214,0.0298,0.0389,0.04,0.0433,0.0434,0.042,0.0384,0.0389,0.0383,0.0442,0.0442,0.0442,0.0442,0,-0.0001,-0.0008,-0.0022,-0.0036,-0.0063,-0.0092,-0.0127,-0.0107,-0.01,-0.0041,-0.001,0.008,0.0128,0.0214,0.0302,0.0368,0.038,0.0386,0.039,0.0392,0.0348,0.0293,0.0341,0,0,0,0,0,0.0013,0.002,0.0007,-0.0013,-0.0033,-0.0044,-0.0092,-0.0122,-0.0116,-0.0042,-0.002,0.0076,0.0182,0.022,0.0288,0.0274,0.037,0.0348,0.0375,0.0435,0.0436,0.039,0,0,0,0,0,0,0.0021,0.0023,0.0022,0.0029,0.0033,-0.0003,-0.0032,-0.0052,-0.0011,0.0011,0.0076,0.0099,0.0208,0.0185,0.0308,0.032,0.0339,0.0399,0.0399,0.0434,0.0435,0.0437,0.039,0,0,0,0,0]}]]